YO4CIL-MG Weather Reports


time (UTC)temp
F
wind
direction
speed
knots
gust
knots
rain 1hr
in
rain 24hr
in
rain mn
in
humidity
%
barometer
mb
20260506180525 56 0.0 0.0 0.00 0.00 0.00 74 1017.5
20260506175525 57 0.0 0.0 0.00 0.00 0.00 74 1017.5
20260506174525 57 0.0 0.0 0.00 0.00 0.00 73 1017.4
20260506173525 57 0.0 0.0 0.00 0.00 0.00 73 1017.2
20260506172525 57 0.0 0.0 0.00 0.00 0.00 72 1017.2
20260506171526 57 0.0 0.0 0.00 0.00 0.00 72 1017.1
20260506170525 58 0.0 0.0 0.00 0.00 0.00 70 1017.1
20260506165525 59 0.0 0.0 0.00 0.00 0.00 70 1017.0
20260506164525 59 0.0 0.0 0.00 0.00 0.00 68 1017.1
20260506163525 60 0.0 0.0 0.00 0.00 0.00 67 1017.2
20260506162525 62 0.0 0.0 0.00 0.00 0.00 64 1017.1
20260506161525 65 0.0 0.0 0.00 0.00 0.00 60 1017.2
20260506160525 67 0.0 0.0 0.00 0.00 0.00 57 1017.2
20260506155525 64 0.0 0.0 0.00 0.00 0.00 60 1017.2
20260506154525 63 0.0 0.0 0.00 0.00 0.00 63 1017.3
20260506153525 62 0.0 0.0 0.00 0.00 0.00 64 1017.2
20260506152525 62 0.0 0.0 0.00 0.00 0.00 64 1017.3
20260506151525 62 0.0 0.0 0.00 0.00 0.00 63 1017.4
20260506150525 63 0.0 0.0 0.00 0.00 0.00 63 1017.4
20260506145525 63 0.0 0.0 0.00 0.00 0.00 63 1017.5
20260506144525 63 0.0 0.0 0.00 0.00 0.00 62 1017.4
20260506143525 63 0.0 0.0 0.00 0.00 0.00 63 1017.3
20260506142525 62 0.0 0.0 0.00 0.00 0.00 64 1017.3
20260506140525 62 0.0 0.0 0.00 0.00 0.00 64 1017.5
20260506135525 62 0.0 0.0 0.00 0.00 0.00 64 1017.5
20260506134525 62 0.0 0.0 0.00 0.00 0.00 64 1017.6
20260506133525 62 0.0 0.0 0.00 0.00 0.00 64 1017.6
20260506132525 62 0.0 0.0 0.00 0.00 0.00 64 1017.5
20260506131525 62 0.0 0.0 0.00 0.00 0.00 64 1017.6
20260506130525 61 0.0 0.0 0.00 0.00 0.00 64 1017.5
20260506125525 61 0.0 0.0 0.00 0.00 0.00 64 1017.5
20260506124525 61 0.0 0.0 0.00 0.00 0.00 65 1017.6
20260506123525 62 0.0 0.0 0.00 0.00 0.00 64 1017.5
20260506122525 62 0.0 0.0 0.00 0.00 0.00 64 1017.6
20260506121525 62 0.0 0.0 0.00 0.00 0.00 64 1017.8
20260506120525 62 0.0 0.0 0.00 0.00 0.00 64 1017.9
20260506115525 61 0.0 0.0 0.00 0.00 0.00 64 1017.9
20260506114525 61 0.0 0.0 0.00 0.00 0.00 65 1017.9
20260506113525 62 0.0 0.0 0.00 0.00 0.00 64 1018.0
20260506112525 61 0.0 0.0 0.00 0.00 0.00 64 1018.1
20260506111525 61 0.0 0.0 0.00 0.00 0.00 65 1018.2
20260506110525 61 0.0 0.0 0.00 0.00 0.00 65 1018.4
20260506105525 61 0.0 0.0 0.00 0.00 0.00 65 1018.4
20260506104525 62 0.0 0.0 0.00 0.00 0.00 64 1018.4
20260506103525 61 0.0 0.0 0.00 0.00 0.00 63 1018.3
20260506102525 61 0.0 0.0 0.00 0.00 0.00 64 1018.3
20260506101525 61 0.0 0.0 0.00 0.00 0.00 64 1018.4
20260506100525 61 0.0 0.0 0.00 0.00 0.00 66 1018.5
20260506095525 61 0.0 0.0 0.00 0.00 0.00 67 1018.4
20260506094525 61 0.0 0.0 0.00 0.00 0.00 66 1018.4
20260506093525 61 0.0 0.0 0.00 0.00 0.00 66 1018.5
20260506092525 61 0.0 0.0 0.00 0.00 0.00 67 1018.4
20260506091525 61 0.0 0.0 0.00 0.00 0.00 67 1018.4
20260506090525 61 0.0 0.0 0.00 0.00 0.00 67 1018.3
20260506085525 61 0.0 0.0 0.00 0.00 0.00 66 1018.4
20260506084525 61 0.0 0.0 0.00 0.00 0.00 67 1018.2
20260506083525 61 0.0 0.0 0.00 0.00 0.00 68 1018.1
20260506082525 61 0.0 0.0 0.00 0.00 0.00 69 1018.0
20260506081525 61 0.0 0.0 0.00 0.00 0.00 68 1017.9
20260506080525 61 0.0 0.0 0.00 0.00 0.00 68 1018.0
20260506073525 60 0.0 0.0 0.00 0.00 0.00 70 1017.9
20260506072525 60 0.0 0.0 0.00 0.00 0.00 71 1017.9
20260506071525 59 0.0 0.0 0.00 0.00 0.00 71 1017.8
20260506070525 59 0.0 0.0 0.00 0.00 0.00 72 1017.6
20260506061525 58 0.0 0.0 0.00 0.00 0.00 68 1017.5
20260506060525 57 0.0 0.0 0.00 0.00 0.00 67 1017.5
20260506050525 54 0.0 0.0 0.00 0.00 0.00 61 1017.1
20260506044525 53 0.0 0.0 0.00 0.00 0.00 62 1017.0
20260506043525 53 0.0 0.0 0.00 0.00 0.00 64 1016.9
20260506042525 52 0.0 0.0 0.00 0.00 0.00 64 1016.8
20260506041525 51 0.0 0.0 0.00 0.00 0.00 63 1016.7
20260506040525 50 0.0 0.0 0.00 0.00 0.00 63 1016.6
20260506035525 49 0.0 0.0 0.00 0.00 0.00 64 1016.6
20260506034525 48 0.0 0.0 0.00 0.00 0.00 64 1016.6
20260506033525 47 0.0 0.0 0.00 0.00 0.00 65 1016.4
20260506032525 48 0.0 0.0 0.00 0.00 0.00 65 1016.3
20260506031525 48 0.0 0.0 0.00 0.00 0.00 63 1016.3
20260506030525 47 0.0 0.0 0.00 0.00 0.00 63 1016.1
20260506025525 47 0.0 0.0 0.00 0.00 0.00 65 1016.0
20260506024525 46 0.0 0.0 0.00 0.00 0.00 65 1015.8
20260506023525 47 0.0 0.0 0.00 0.00 0.00 64 1015.7
20260506022525 46 0.0 0.0 0.00 0.00 0.00 65 1015.7
20260506021525 47 0.0 0.0 0.00 0.00 0.00 65 1015.6
20260506020525 47 0.0 0.0 0.00 0.00 0.00 64 1015.6
20260506015525 47 0.0 0.0 0.00 0.00 0.00 64 1015.6
20260506014525 47 0.0 0.0 0.00 0.00 0.00 64 1015.5
20260506013525 47 0.0 0.0 0.00 0.00 0.00 65 1015.5
20260506012525 47 0.0 0.0 0.00 0.00 0.00 66 1015.6
20260506011525 46 0.0 0.0 0.00 0.00 0.00 67 1015.7
20260506010525 47 0.0 0.0 0.00 0.00 0.00 67 1015.6
20260506005525 47 0.0 0.0 0.00 0.00 0.00 68 1015.8
20260506004524 47 0.0 0.0 0.00 0.00 0.00 68 1015.7
20260506003525 47 0.0 0.0 0.00 0.00 0.00 68 1015.7
20260506002524 47 0.0 0.0 0.00 0.00 0.00 69 1015.8
20260506001525 47 0.0 0.0 0.00 0.00 0.00 69 1015.8
20260506000525 47 0.0 0.0 0.00 0.00 0.00 69 1015.9
20260505235524 47 0.0 0.0 0.00 0.00 0.00 70 1015.9
20260505234524 47 0.0 0.0 0.00 0.00 0.00 70 1015.9
20260505233525 47 0.0 0.0 0.00 0.00 0.00 70 1016.0
20260505232525 48 0.0 0.0 0.00 0.00 0.00 70 1016.0
20260505231525 48 0.0 0.0 0.00 0.00 0.00 70 1016.2
20260505230525 48 0.0 0.0 0.00 0.00 0.00 70 1016.2
20260505225524 48 0.0 0.0 0.00 0.00 0.00 71 1016.2
20260505224525 48 0.0 0.0 0.00 0.00 0.00 70 1016.4
20260505223525 49 0.0 0.0 0.00 0.00 0.00 70 1016.4
20260505222525 49 0.0 0.0 0.00 0.00 0.00 70 1016.5
20260505221524 49 0.0 0.0 0.00 0.00 0.00 71 1016.6
20260505220524 49 0.0 0.0 0.00 0.00 0.00 71 1016.8
20260505215524 49 0.0 0.0 0.00 0.00 0.00 71 1016.9
20260505214525 50 0.0 0.0 0.00 0.00 0.00 71 1016.9
20260505213525 50 0.0 0.0 0.00 0.00 0.00 70 1016.9
20260505212524 50 0.0 0.0 0.00 0.00 0.00 70 1017.0
20260505211524 50 0.0 0.0 0.00 0.00 0.00 70 1017.1
20260505210525 51 0.0 0.0 0.00 0.00 0.00 70 1017.3
20260505205524 51 0.0 0.0 0.00 0.00 0.00 70 1017.3
20260505204524 51 0.0 0.0 0.00 0.00 0.00 70 1017.3
20260505203524 51 0.0 0.0 0.00 0.00 0.00 69 1017.3
20260505202524 52 0.0 0.0 0.00 0.00 0.00 69 1017.2
20260505201524 52 0.0 0.0 0.00 0.00 0.00 69 1017.2
20260505200524 52 0.0 0.0 0.00 0.00 0.00 68 1017.2
20260505195525 52 0.0 0.0 0.00 0.00 0.00 67 1017.2
20260505194524 53 0.0 0.0 0.00 0.00 0.00 66 1017.2
20260505193524 54 0.0 0.0 0.00 0.00 0.00 66 1017.2
20260505192526 54 0.0 0.0 0.00 0.00 0.00 67 1017.0
20260505191524 54 0.0 0.0 0.00 0.00 0.00 67 1016.9
20260505190528 55 0.0 0.0 0.00 0.00 0.00 68 1016.9
20260505185524 55 0.0 0.0 0.00 0.00 0.00 68 1016.9
20260505184524 55 0.0 0.0 0.00 0.00 0.00 69 1017.0
20260505183524 55 0.0 0.0 0.00 0.00 0.00 68 1017.0
20260505182524 55 0.0 0.0 0.00 0.00 0.00 68 1017.0
20260505181524 56 0.0 0.0 0.00 0.00 0.00 67 1016.8